Regional Weather Roundup
Issued by NWS

Home | Current Version | Previous Version | Text Only | Print | Product List | Glossary On
Versions: 1 2 3 4 5 6 7 8 9 10 11 12 13 14 15 16 17 18 19 20 21 22 23 24 25 26 27 28 29 30 31 32 33 34 35 36 37 38 39 40 41 42 43 44 45 46 47 48 49 50
000
ASUS43 KDMX 232106
RWRIA

WEATHER ROUNDUP FOR IOWA
NATIONAL WEATHER SERVICE DES MOINES IA
400 PM CDT THU MAR 23 2017

NOTE: "FAIR" INDICATES FEW OR NO CLOUDS BELOW 12,000 FEET WITH NO
SIGNIFICANT WEATHER AND/OR OBSTRUCTIONS TO VISIBILITY.

* - THESE STATIONS ARE NOT NWS STATIONS...THUS NOT UNDER NWS
QUALITY CONTROL.  THEY ALSO DO NOT REPORT WEATHER SUCH
AS PRECIPITATION OR FOG.

IAZ001>003-012>014-020>022-031>034-043>046-232200-
   NORTHWEST IOWA

CITY           SKY/WX    TMP DP  RH WIND       PRES   REMARKS
CARROLL *      CLOUDY    59  41  51 SE12      29.84F
CHEROKEE *     DRIZZLE   51  41  70 SE25G33   29.66F
DENISON *      CLOUDY    57  45  62 SE10      29.75F
LE MARS *      CLOUDY    54  41  62 SW8       29.74R
ORANGE CITY *  CLOUDY    52  43  71 SE7       29.74R
SHELDON *      CLOUDY    45  45 100 SE15      29.73F
SIOUX CITY     CLOUDY    55  44  66 SE9       29.70F THUNDER
SPENCER        CLOUDY    44  36  73 SE20G31   29.76F
STORM LAKE *   CLOUDY    50  39  66 SE13      29.82R
$$

IAZ055>058-069>071-079>083-090>094-232200-
   SOUTHWEST IOWA

CITY           SKY/WX    TMP DP  RH WIND       PRES   REMARKS
ATLANTIC *     CLOUDY    63  41  45 E12       29.76F
AUDUBON *      CLOUDY    61  41  48 SE12      29.81F
CLARINDA *     CLOUDY    75  52  43 S18G26    29.77F
COUNCIL BLFS * MOSUNNY   70  52  52 SE14G23   29.72F
CRESTON *      CLOUDY    66  43  42 S14G24    29.83F
HARLAN  *      CLOUDY    64  43  45 E16       29.80F
LAMONI         SUNNY     70  42  36 S14G31    29.81F
RED OAK *      CLOUDY    72  52  49 S24G31    29.72F
SHENANDOAH *   CLOUDY    73  52  46 S23G32    29.72F
$$

IAZ047>049-059>061-072>074-084-232200-
   CENTRAL IOWA

CITY           SKY/WX    TMP DP  RH WIND       PRES   REMARKS
AMES           PTSUNNY   49  36  61 SE10G20   29.92R
ANKENY *       MOSUNNY   54  36  50 SE16      29.88F
BOONE *        CLOUDY    50  36  57 SE14      29.89R
CHARITON *     PTSUNNY   61  39  44 SE16G23   29.86F
DES MOINES     CLOUDY    56  36  47 SE17G23   29.87F
GRINNELL*      MOSUNNY   47  37  69 SE17      29.94S
KNOXVILLE *    PTSUNNY   55  36  47 SE16      29.88R
MARSHALLTOWN   CLOUDY    47  35  63 SE18      29.93F
NEWTON *       PTSUNNY   48  36  61 SE16      29.92R
PELLA *        MOSUNNY   52  37  57 SE12G18   29.93R
PERRY *        PTSUNNY   56  36  47 SE12      29.86R
$$

IAZ004>006-015-016-023>025-035-036-232200-
   NORTH CENTRAL IOWA

CITY           SKY/WX    TMP DP  RH WIND       PRES   REMARKS
ALGONA *       CLOUDY    41  36  81 SE21G29   29.84F
CLARION *      CLOUDY    41  36  81 S16G24    29.92R
ESTHERVILLE    CLOUDY    39  34  82 SE25G31   29.80R WCI  28
FORT DODGE *   PTSUNNY   46  32  57 SE15      29.88F
MASON CITY     FLURRIES  37  34  89 SE24G35   29.90S WCI  26
FOREST CITY *  CLOUDY    36  34  93 S20G26    29.90R WCI  25
WEBSTER CITY * CLOUDY    48  34  57 SE22G28   29.87R
IOWA FALLS *   CLOUDY    43  33  68 SE24G30   29.90F
$$

IAZ007>011-017>019-026>030-037>042-050>054-066-232200-
   NORTHEAST IOWA

CITY           SKY/WX    TMP DP  RH WIND       PRES   REMARKS
CEDAR RAPIDS   CLOUDY    42  37  82 SE18      29.97F
CHARLES CITY * CLOUDY    39  39 100 SE24      29.91R WCI  28
CLINTON *      CLOUDY    43  30  60 S22       30.08F
DECORAH *      CLOUDY    39  32  75 S15G23    29.94F WCI  31
DUBUQUE        CLOUDY    41  28  60 SE20G26   30.06F
MONTICELLO *   CLOUDY    43  32  65 SE14G21   30.03F
WATERLOO       LGT RAIN  39  36  89 SE14      29.94F FOG     WCI  31
$$

IAZ064-065-067-068-078-232200-
   EAST CENTRAL IOWA

CITY           SKY/WX    TMP DP  RH WIND       PRES   REMARKS
DAVENPORT      CLOUDY    41  34  76 SE16G29   30.06F
IOWA CITY      CLOUDY    44  37  76 SE23G29   30.01F
MUSCATINE *    CLOUDY    43  37  81 SE15G25   30.04F
QUAD CITIES    CLOUDY    41  34  76 SE14G26   30.07F
$$

IAZ062-063-075>077-085>089-095>099-232200-
   SOUTHEAST IOWA

CITY           SKY/WX    TMP DP  RH WIND       PRES   REMARKS
BURLINGTON     PTSUNNY   47  39  74 SE18G24   30.02F
FAIRFIELD *    MOSUNNY   50  36  57 SE23      29.95F
FORT MADISON * MOSUNNY   52  39  62 SE20G26   30.01F
KEOKUK *       MOSUNNY   52  39  62 SE13G21   29.99F
OSKALOOSA *      N/A     49  37  61 SE24G30   29.90F
CENTERVILLE *    N/A     61  37  41 SE23G31   29.87F
OTTUMWA        MOSUNNY   51  36  56 SE23G30   29.89F
WASHINGTON *   PTSUNNY   48  39  71 SE24G31   29.98F
$$

ABBREVIATIONS USED IN REMARKS
   TC - TEMPERATURES IN CELSIUS
  WCI - WIND CHILL INDEX
   HX - HEAT INDEX
  VSB - VISIBILITY
$$




USA.gov is the U.S. government's official web portal to all federal, state and local government web resources and services.